TITAN 3C TRANSTAGE DEB, 39299

Orbit data source: Space-Track

TITAN 3C TRANSTAGE DEB, 39299 is space debris in GEO originally from a launch on Thu, 26 Sep 1968 UTC launched from the Air Force Eastern Test Range (AFETR). Debris objects in space refer to the collection of defunct objects orbiting the Earth. Examples of debris include non-operational satellites, rocket bodies, and fragments generated from explosions, collisions, or faulty payload assembly.

Not visible in the next 10 days
Identifier
39299, 1968-081AK
Orbit
GEO
Country
Flag of USUS
Related business
Manufacturer
Unknown
Mission
Spacecraft
Bus & Motor
Unknown
Mass
Unknown
Launch date (UTC)
1968-09-26 (57 years ago)
Launch vehicle
Unknown
Launch site
Air Force Eastern Test Range (AFETR)
Object type
Payload
Rocket body
Debris
Shape & HBR
Unknown shape, 1.1 m
Radar Cross Section
RCS unknown

Expand to show TLE details & history
Last TLE update: 1 week ago

TLE from 1 week ago
0 TITAN 3C TRANSTAGE DEB
1 39299U 68081AK  25300.11612307  .00000031  00000-0  00000-0 0  9990
2 39299   1.2790   1.3017 0840926 169.7593 275.1616  1.00326062 64844
Epoch: 2025-10-27T02:47Z
TLE epoch observation values (Epoch: 2025-10-27T02:47:13.033Z)
Latitude
1.23645°
Longitude
-0.98752°
Altitude
35,768.729 km
Speed
3.075 km/s
True Right ascension
05h 06m 09s
True Declination
1° 14' 07"
Sunlit
Object was in daylight at epoch
Visualization orbit readout
Latitude
Unknown
Longitude
Unknown
Altitude
Unknown
Speed
Unknown
Apparent Right ascension
Unknown
Apparent Declination
Unknown
Sunlit
N/A
Visualization observer readout
Local Sidereal Time
17:50:44
Azimuth
Unknown
Elevation
Unknown
Doppler factor
Unknown
Orbital elements
Apogee altitude
39,317.021 km
Perigee altitude
32,227.913 km
Semi-major axis
42,150.604 km
Eccentricity
0.08409
Inclination
1.279°
RAAN
1.3017°
Arg. of periapsis
169.7593°
True anomaly
265.51856°
Mean anomaly
275.1616°
Eccentric anomaly
270.34354°
Mean motion
0.25081 °/min
Orbital period
1,435.37 mins
BSTAR
0
Loading maneuver chart data...
Computing Atmospheric mass density...

Documentation

Showing up to 5 results
|